Date String (YYYY-MM-DD hh:mm:ss) UTC,Instrument flags,absolute air pressure of the measurement (hPa),sample flow rate (lpm),inlet stack bypass flow (lpm),air temperature of the measurement (°C),ambient temperature measured by the external sensor (°C),aerosol sample conditioner tube jacket temperature (°C),OPC LED temperature (°C),internal box temperature (°C),relative humidity of the measurement (%),span deviation,mass concentration of particles derived from Lorenz-Mie calculation of OPC scattering (μg/m³),mass concentration of particles derived from Lorenz-Mie calculation of OPC scattering (μg/m³),mass concentration of particles derived from Lorenz-Mie calculation of OPC scattering (μg/m³)
DateTimeUTC,F1_M11,P_M11,Q1_M11,Q2_M11,T1_M11,T2_M11,T3_M11,T4_M11,T5_M11,U1_M11,ZSPAN_M11,X0_M11,X2_M11,X1_M11
2024-05-16 13:00:00,SystemResetWarning,0827.7,5.00,000.00,025.8,025.1,000.0,034.0,027.6,025.5,0000.0,0005.41,0002.26,0001.83
2024-05-16 13:01:00,SystemResetWarning,0827.7,5.00,000.00,025.8,025.1,000.0,034.1,027.6,025.2,0000.0,0004.23,0002.25,0001.83
2024-05-16 13:02:00,SystemResetWarning,0827.7,5.00,000.00,025.8,025.1,000.0,034.1,027.6,025.2,0000.0,0003.71,0002.23,0001.83
2024-05-16 13:03:00,SystemResetWarning,0827.7,4.99,000.00,025.9,025.2,000.0,034.1,027.6,025.6,0000.0,0003.68,0002.21,0001.83
2024-05-16 13:04:00,SystemResetWarning,0827.7,4.99,000.00,025.9,025.2,000.0,034.1,027.6,025.5,0000.0,0003.44,0002.19,0001.85
2024-05-16 13:05:00,SystemResetWarning,0827.7,4.99,000.00,025.9,025.2,000.0,034.1,027.6,025.1,0000.0,0003.61,0002.22,0001.90
2024-05-16 13:06:00,SystemResetWarning,0827.7,5.00,000.00,025.9,025.2,000.0,034.1,027.6,025.0,0000.0,0004.25,0002.28,0001.95
2024-05-16 13:07:00,SystemResetWarning,0827.7,5.00,000.00,025.9,025.2,000.0,034.1,027.7,025.1,0000.0,0004.89,0002.37,0002.01
2024-05-16 13:08:00,SystemResetWarning,0827.7,5.01,000.00,025.9,025.2,000.0,034.1,027.7,025.3,0000.0,0005.18,0002.50,0002.07
2024-05-16 13:09:00,SystemResetWarning,0827.7,5.00,000.00,025.9,025.2,000.0,034.1,027.7,025.5,0000.0,0005.31,0002.56,0002.09
2024-05-16 13:10:00,SystemResetWarning,0827.7,5.00,000.00,025.9,025.2,000.0,034.1,027.7,025.6,0000.0,0005.79,0002.70,0002.16
2024-05-16 13:11:00,SystemResetWarning,0827.7,4.99,000.00,025.9,025.2,000.0,034.1,027.7,025.5,0000.0,0007.66,0002.85,0002.24
2024-05-16 13:12:00,SystemResetWarning,0827.7,5.00,000.00,025.9,025.2,000.0,034.1,027.7,025.1,0000.0,0008.16,0002.92,0002.28
2024-05-16 13:13:00,SystemResetWarning,0827.7,4.99,000.00,025.9,025.2,000.0,034.1,027.7,025.8,0000.0,0008.76,0003.03,0002.33
2024-05-16 13:14:00,SystemResetWarning,0827.7,5.00,000.00,025.9,025.2,000.0,034.1,027.7,026.4,0000.0,0009.00,0003.13,0002.38
2024-05-16 13:15:00,SystemResetWarning,0827.7,5.01,000.00,025.9,025.2,000.0,034.1,027.7,026.7,0000.0,0010.05,0003.21,0002.41
2024-05-16 13:16:00,SystemResetWarning,0827.7,5.00,000.00,025.9,025.2,000.0,034.1,027.7,026.7,0000.0,0010.35,0003.28,0002.43
2024-05-16 13:17:00,SystemResetWarning,0827.8,5.01,000.00,025.9,025.2,000.0,034.2,027.7,025.7,0000.0,0010.07,0003.30,0002.44
2024-05-16 13:18:00,SystemResetWarning,0827.8,5.00,000.00,025.9,025.2,000.0,034.2,027.7,025.1,0000.0,0010.46,0003.30,0002.45
2024-05-16 13:19:00,SystemResetWarning,0827.8,4.99,000.00,025.9,025.2,000.0,034.2,027.7,025.5,0000.0,0010.65,0003.29,0002.45
2024-05-16 13:20:00,SystemResetWarning,0827.8,4.99,000.00,025.9,025.2,000.0,034.2,027.7,026.0,0000.0,0011.87,0003.29,0002.45
2024-05-16 13:21:00,SystemResetWarning,0827.7,5.00,000.00,025.9,025.2,000.0,034.2,027.7,026.4,0000.0,0012.43,0003.26,0002.44
2024-05-16 13:22:00,SystemResetWarning,0827.8,5.00,000.00,025.9,025.1,000.0,034.2,027.7,026.6,0000.0,0011.44,0003.26,0002.43
2024-05-16 13:23:00,SystemResetWarning,0827.7,5.00,000.00,025.9,025.1,000.0,034.2,027.7,026.7,0000.0,0011.29,0003.26,0002.42
2024-05-16 13:24:00,SystemResetWarning,0827.8,5.00,000.00,025.9,025.1,000.0,034.2,027.7,026.4,0000.0,0011.25,0003.30,0002.43
2024-05-16 13:25:00,SystemResetWarning,0827.8,5.01,000.00,025.9,025.1,000.0,034.2,027.7,025.5,0000.0,0011.26,0003.31,0002.42
2024-05-16 13:26:00,SystemResetWarning,0827.9,5.01,000.00,025.9,025.1,000.0,034.2,027.6,024.9,0000.0,0010.30,0003.28,0002.42
2024-05-16 13:27:00,SystemResetWarning,0827.8,5.00,000.00,025.9,025.1,000.0,034.2,027.6,025.2,0000.0,0009.81,0003.21,0002.40
2024-05-16 13:28:00,SystemResetWarning,0827.8,4.99,000.00,025.9,025.1,000.0,034.2,027.7,025.3,0000.0,0010.05,0003.22,0002.41
2024-05-16 13:29:00,SystemResetWarning,0827.8,4.99,000.00,025.9,025.1,000.0,034.2,027.6,024.9,0000.0,0009.73,0003.23,0002.42
2024-05-16 13:30:00,SystemResetWarning,0827.7,5.00,000.00,025.9,025.1,000.0,034.2,027.6,025.0,0000.0,0009.19,0003.20,0002.42
2024-05-16 13:31:00,SystemResetWarning,0827.8,4.99,000.00,025.9,025.1,000.0,034.2,027.6,025.4,0000.0,0008.35,0003.21,0002.43
2024-05-16 13:32:00,SystemResetWarning,0827.8,5.00,000.00,025.9,025.1,000.0,034.2,027.6,025.4,0000.0,0007.66,0003.22,0002.43
2024-05-16 13:33:00,SystemResetWarning,0827.8,5.01,000.00,025.9,025.1,000.0,034.2,027.7,025.1,0000.0,0007.44,0003.18,0002.42
2024-05-16 13:34:00,SystemResetWarning,0827.8,5.01,000.00,025.9,025.1,000.0,034.2,027.7,025.5,0000.0,0007.37,0003.18,0002.43
2024-05-16 13:35:00,SystemResetWarning,0827.8,5.01,000.00,025.9,025.1,000.0,034.2,027.7,025.8,0000.0,0006.49,0003.15,0002.43
2024-05-16 13:36:00,SystemResetWarning,0827.8,5.01,000.00,025.9,025.1,000.0,034.2,027.7,025.9,0000.0,0006.61,0003.13,0002.43
2024-05-16 13:37:00,SystemResetWarning,0827.7,4.99,000.00,025.9,025.1,000.0,034.2,027.7,025.7,0000.0,0006.68,0003.14,0002.44
2024-05-16 13:38:00,SystemResetWarning,0827.8,5.00,000.00,025.9,025.1,000.0,034.2,027.7,026.1,0000.0,0007.29,0003.18,0002.45
2024-05-16 13:39:00,SystemResetWarning,0827.9,4.99,000.00,025.9,025.1,000.0,034.2,027.7,026.1,0000.0,0007.16,0003.19,0002.45
2024-05-16 13:40:00,SystemResetWarning,0827.8,5.01,000.00,025.9,025.1,000.0,034.2,027.7,025.8,0000.0,0007.14,0003.21,0002.45
2024-05-16 13:41:00,SystemResetWarning,0827.8,5.00,000.00,025.9,025.2,000.0,034.2,027.7,025.9,0000.0,0007.26,0003.22,0002.44
2024-05-16 13:42:00,SystemResetWarning,0827.8,5.00,000.00,025.9,025.2,000.0,034.2,027.7,025.6,0000.0,0007.06,0003.20,0002.42
2024-05-16 13:43:00,SystemResetWarning,0827.8,5.00,000.00,025.9,025.2,000.0,034.2,027.7,025.7,0000.0,0006.66,0003.20,0002.40
2024-05-16 13:44:00,SystemResetWarning,0827.9,5.00,000.00,025.9,025.2,000.0,034.2,027.7,025.5,0000.0,0007.18,0003.22,0002.39
2024-05-16 13:45:00,SystemResetWarning,0827.8,5.00,000.00,025.9,025.2,000.0,034.2,027.7,025.6,0000.0,0007.27,0003.20,0002.38
2024-05-16 13:46:00,SystemResetWarning,0827.8,5.00,000.00,025.9,025.2,000.0,034.2,027.7,025.5,0000.0,0007.37,0003.17,0002.35
2024-05-16 13:47:00,SystemResetWarning,0827.7,5.00,000.00,025.9,025.2,000.0,034.2,027.7,024.9,0000.0,0007.86,0003.14,0002.34
2024-05-16 13:48:00,SystemResetWarning,0827.8,5.00,000.00,025.9,025.2,000.0,034.2,027.7,024.8,0000.0,0008.21,0003.14,0002.32
2024-05-16 13:49:00,SystemResetWarning,0827.8,4.99,000.00,025.9,025.2,000.0,034.2,027.7,025.0,0000.0,0008.07,0003.12,0002.30
2024-05-16 13:50:00,SystemResetWarning,0827.8,4.99,000.00,025.9,025.2,000.0,034.2,027.7,025.1,0000.0,0007.98,0003.12,0002.29
2024-05-16 13:51:00,SystemResetWarning,0827.8,5.00,000.00,025.9,025.2,000.0,034.2,027.8,025.5,0000.0,0007.91,0003.10,0002.27
2024-05-16 13:52:00,SystemResetWarning,0827.7,5.01,000.00,025.9,025.2,000.0,034.2,027.7,025.0,0000.0,0008.02,0003.14,0002.27
2024-05-16 13:53:00,SystemResetWarning,0827.8,5.01,000.00,025.9,025.2,000.0,034.2,027.7,024.8,0000.0,0008.85,0003.19,0002.28
2024-05-16 13:54:00,SystemResetWarning,0827.8,5.01,000.00,025.9,025.2,000.0,034.2,027.7,025.0,0000.0,0009.43,0003.22,0002.29
2024-05-16 13:55:00,SystemResetWarning,0827.8,5.00,000.00,025.9,025.2,000.0,034.2,027.7,025.2,0000.0,0010.55,0003.22,0002.29
2024-05-16 13:56:00,SystemResetWarning,0827.8,4.99,000.00,025.9,025.2,000.0,034.2,027.7,025.3,0000.0,0011.28,0003.24,0002.29
2024-05-16 13:57:00,SystemResetWarning,0827.8,5.00,000.00,025.9,025.2,000.0,034.2,027.7,024.7,0000.0,0012.78,0003.29,0002.29
2024-05-16 13:58:00,SystemResetWarning,0827.8,5.01,000.00,025.9,025.2,000.0,034.2,027.7,024.7,0000.0,0012.18,0003.32,0002.30
2024-05-16 13:59:00,SystemResetWarning,0827.8,4.99,000.00,025.9,025.2,000.0,034.2,027.7,024.9,0000.0,0011.93,0003.33,0002.29
